Location: St. Louis
(38.6270°N, 90.1994°W)
Time: 04:56:58
(UTC-05:00)

ISS - Pass Details

Date: 09 February 2014
Orbit: 402 x 404 km, 51.6° (Epoch: 23 May)

Event Time Altitude Azimuth Distance (km) Brightness Sun altitude
Rises 17:47:40 0° 248° (WSW) 2,401 3.3 -3.8°
Reaches altitude 10° 17:49:51 10° 256° (WSW) 1,542 1.6 -4.2°
Maximum altitude 17:53:08 39° 327° (NNW) 671 -2.0 -4.8°
Drops below altitude 10° 17:56:28 10° 39° (NE) 1,563 -0.8 -5.4°
Enters shadow 17:57:49 - 44° (NE) 2,088 -0.2 -5.7°
